Claresholm, Alberta

8:20 PM MDT on May 22, 2017 (GMT -0600)
Claresholm

Weather History for CWDK - October, 2012

Change the Weather History Date:

Sunday, October 28, 2012

  Actual Average Record
Temperature  
Mean Temperature 34 °F -  
Max Temperature 51 °F - - ()
Min Temperature 17 °F - - ()
Degree Days  
Heating Degree Days 31    
Moisture  
Dew Point 25 °F    
Average Humidity 77    
Maximum Humidity 98    
Minimum Humidity 40    
Precipitation  
Precipitation 0.00 in - - ()
Sea Level Pressure  
Sea Level Pressure 29.86 in    
Wind  
Wind Speed 5 mph ()    
Max Wind Speed 17 mph    
Max Gust Speed 23 mph    
T = Trace of Precipitation, MM = Missing Value Source: Averaged Metar Reports

Daily Weather History Graph

Daily Weather History Graph

Search for Another Location

Airport or City:

Trip Planner

Search our weather history database for the weather conditions in past years. The results will help you decide how hot, cold, wet, or windy it might be!

Date:

Astronomy

Oct. 28, 2012 Rise Set
Actual Time 8:18 AM MDT 6:17 PM MDT
Civil Twilight 7:44 AM MDT 6:50 PM MDT
Nautical Twilight 7:06 AM MDT 7:28 PM MDT
Astronomical Twilight 6:29 AM MDT 8:06 PM MDT
Moon 5:37 PM MDT (10/28) 7:13 AM MDT (10/28)
Length of Visible Light 11h 05m
Length of Day
9h 58m
Waxing Gibbous, 99% of the Moon is Illuminated
Oct 28
Waxing Gibbous
Oct 29
Full
Nov 6
Last Quarter
Nov 13
New
Nov 20
First Quarter

Hourly Weather History & Observations

Time (MDT) Temp. Windchill Dew Point Humidity Pressure Visibility Wind Dir Wind Speed Gust Speed Precip Events Conditions
12:00 AM 21 °F - 21 °F 98% 30.01 in - SSE 2.3 mph - -  
12:00 AM 21.2 °F - 20.7 °F 98% 30.01 in - SSE 2.3 mph - N/A   Unknown
1:00 AM 21.4 °F 15.1 °F 20.7 °F 97% 29.98 in - South 4.6 mph - N/A   Unknown
2:00 AM 21.7 °F 12.3 °F 20.7 °F 96% 29.94 in - South 8.1 mph - N/A   Unknown
3:00 AM 22.1 °F 12.8 °F 20.8 °F 95% 29.90 in - South 8.1 mph - N/A   Unknown
4:00 AM 22.5 °F 16.3 °F 20.8 °F 93% 29.86 in - South 4.6 mph - N/A   Unknown
5:00 AM 22.8 °F - 21.2 °F 93% 29.84 in - ESE 2.3 mph - N/A   Unknown
6:00 AM 23 °F - 21 °F 90% 29.84 in - NNE 4.6 mph - -  
6:00 AM 23.2 °F 17.2 °F 21.2 °F 92% 29.84 in - NNE 4.6 mph - N/A   Unknown
7:00 AM 22.3 °F 16.1 °F 21.2 °F 96% 29.83 in - North 4.6 mph - N/A   Unknown
8:00 AM 18.7 °F - 18.1 °F 98% 29.83 in - NNW 2.3 mph - N/A   Unknown
9:00 AM 20.8 °F - 20.1 °F 97% 29.83 in - North 2.3 mph - N/A   Unknown
10:00 AM 23.4 °F 17.4 °F 21.6 °F 93% 29.83 in - North 4.6 mph - N/A   Unknown
11:00 AM 30.9 °F 27.5 °F 23.9 °F 75% 29.81 in - NW 3.5 mph - N/A   Unknown
12:00 PM 38 °F - 29 °F 58% 29.81 in - SSW 3.5 mph - -  
12:00 PM 38.1 °F 35.7 °F 28.6 °F 69% 29.81 in - SSW 3.5 mph - N/A   Unknown
1:00 PM 43.2 °F 37.4 °F 30.2 °F 60% 29.79 in - WSW 10.4 mph - N/A   Unknown
2:00 PM 45.0 °F 40.1 °F 31.5 °F 59% 29.79 in - SW 9.2 mph - N/A   Unknown
3:00 PM 50.0 °F - 30.2 °F 47% 29.78 in - SW 6.9 mph - N/A   Unknown
4:00 PM 48.9 °F - 27.0 °F 43% 29.79 in - WSW 8.1 mph - N/A   Unknown
5:00 PM 45.7 °F 38.8 °F 28.6 °F 51% 29.82 in - West 16.1 mph - N/A   Unknown
6:00 PM 44 °F - 28 °F 40% 29.84 in - West 17.3 mph - -  
6:00 PM 43.9 °F 36.2 °F 27.7 °F 53% 29.84 in - West 17.3 mph 23.0 mph N/A   Unknown
7:00 PM 41.5 °F - 27.5 °F 57% 29.87 in - North 1.2 mph - N/A   Unknown
8:00 PM 40.3 °F 38.2 °F 27.0 °F 59% 29.90 in - NNW 3.5 mph - N/A   Unknown
9:00 PM 38.3 °F 30.9 °F 27.3 °F 65% 29.90 in - West 11.5 mph - N/A   Unknown
10:00 PM 28.6 °F 19.9 °F 26.6 °F 92% 29.96 in - NNE 9.2 mph 18.4 mph N/A   Unknown
11:00 PM 27.0 °F 16.1 °F 26.4 °F 98% 29.96 in - North 12.7 mph - N/A   Unknown